• In Hungary
  • List of Countries
  • For 7 days
  • Water Temperature
  • Satellite Maps
  • Weather Map
  • News
  • Weather Widgets
  • user-avatar
    Login

    Hourly Weather Kongola

    Today, 24 January, Wednesday

    Time Temperature Precipitation Wind Pressure Humidity
    00:00 +24°C° 0.3 mm 2 mps 676 mmHg 79%
    01:00 +24°C° 0.3 mm 2 mps 676 mmHg 80%
    02:00 +24°C° 0.3 mm 2 mps 676 mmHg 81%
    03:00 +23°C° 0.5 mm 2 mps 676 mmHg 82%
    04:00 +23°C° 0.5 mm 2 mps 676 mmHg 83%
    05:00 +22°C° 0.5 mm 3 mps 676 mmHg 84%
    06:00 +23°C° 1.1 mm 2 mps 676 mmHg 85%
    07:00 +23°C° 1.1 mm 2 mps 677 mmHg 85%
    08:00 +23°C° 1.1 mm 2 mps 677 mmHg 86%
    09:00 +25°C° 0.4 mm 2 mps 677 mmHg 78%
    10:00 +26°C° 0.4 mm 2 mps 678 mmHg 70%
    11:00 +28°C° 0.4 mm 2 mps 678 mmHg 62%
    12:00 +29°C° 0.1 mm 2 mps 678 mmHg 55%
    13:00 +31°C° 0.1 mm 2 mps 678 mmHg 48%
    14:00 +32°C° 0.1 mm 1 mps 678 mmHg 41%
    15:00 +32°C° 0 mm 2 mps 677 mmHg 43%
    16:00 +31°C° 0 mm 2 mps 677 mmHg 45%
    17:00 +30°C° 0 mm 2 mps 676 mmHg 48%
    18:00 +29°C° 0 mm 2 mps 676 mmHg 55%
    19:00 +27°C° 0 mm 2 mps 676 mmHg 62%
    20:00 +25°C° 0 mm 2 mps 675 mmHg 69%
    21:00 +25°C° 0 mm 1 mps 676 mmHg 71%
    22:00 +24°C° 0 mm 1 mps 676 mmHg 73%
    23:00 +22°C° 0 mm 0 mps 676 mmHg 75%

    Tomorrow, 25 January, Thursday

    Time Temperature Precipitation Wind Pressure Humidity
    00:00 +22°C° 0.2 mm 0 mps 676 mmHg 77%
    01:00 +21°C° 0.2 mm 0 mps 676 mmHg 78%
    02:00 +21°C° 0.2 mm 0 mps 676 mmHg 80%
    03:00 +23°C° 0.3 mm 1 mps 676 mmHg 82%
    04:00 +22°C° 0.3 mm 1 mps 676 mmHg 85%
    05:00 +22°C° 0.3 mm 1 mps 676 mmHg 87%
    06:00 +22°C° 0.5 mm 1 mps 676 mmHg 86%
    07:00 +23°C° 0.5 mm 2 mps 676 mmHg 86%
    08:00 +23°C° 0.5 mm 2 mps 677 mmHg 85%
    09:00 +26°C° 0 mm 2 mps 677 mmHg 74%
    10:00 +28°C° 0 mm 2 mps 678 mmHg 62%
    11:00 +31°C° 0 mm 1 mps 678 mmHg 51%
    12:00 +33°C° 0 mm 1 mps 678 mmHg 44%
    13:00 +35°C° 0 mm 1 mps 677 mmHg 38%
    14:00 +36°C° 0 mm 1 mps 677 mmHg 32%
    15:00 +35°C° 0 mm 1 mps 677 mmHg 34%
    16:00 +34°C° 0 mm 1 mps 676 mmHg 36%
    17:00 +33°C° 0 mm 1 mps 675 mmHg 38%
    18:00 +31°C° 0 mm 1 mps 675 mmHg 42%
    19:00 +30°C° 0 mm 1 mps 675 mmHg 46%
    20:00 +28°C° 0 mm 1 mps 675 mmHg 50%
    21:00 +27°C° 0.1 mm 1 mps 676 mmHg 54%
    22:00 +26°C° 0.1 mm 1 mps 676 mmHg 58%
    23:00 +25°C° 0.1 mm 1 mps 676 mmHg 62%

    Day after tomorrow, 26 January, Friday

    Time Temperature Precipitation Wind Pressure Humidity
    00:00 +24°C° 0.8 mm 1 mps 676 mmHg 69%
    01:00 +23°C° 0.8 mm 1 mps 675 mmHg 76%
    02:00 +22°C° 0.8 mm 1 mps 675 mmHg 83%
    03:00 +22°C° 0.4 mm 1 mps 675 mmHg 83%
    04:00 +22°C° 0.4 mm 1 mps 675 mmHg 84%
    05:00 +22°C° 0.4 mm 1 mps 675 mmHg 85%
    06:00 +23°C° 0 mm 1 mps 676 mmHg 82%
    07:00 +24°C° 0 mm 1 mps 676 mmHg 80%
    08:00 +25°C° 0 mm 2 mps 677 mmHg 77%
    09:00 +27°C° 0 mm 2 mps 677 mmHg 65%
    10:00 +30°C° 0 mm 2 mps 678 mmHg 53%
    11:00 +34°C° 0 mm 2 mps 678 mmHg 42%
    12:00 +34°C° 0 mm 2 mps 678 mmHg 40%
    13:00 +35°C° 0 mm 2 mps 677 mmHg 37%
    14:00 +34°C° 0 mm 1 mps 677 mmHg 35%
    15:00 +34°C° 0 mm 1 mps 676 mmHg 36%
    16:00 +34°C° 0 mm 1 mps 676 mmHg 36%
    17:00 +34°C° 0 mm 1 mps 675 mmHg 37%
    18:00 +32°C° 0 mm 1 mps 675 mmHg 41%
    19:00 +30°C° 0 mm 1 mps 675 mmHg 46%
    20:00 +28°C° 0 mm 1 mps 676 mmHg 51%
    21:00 +27°C° 0.2 mm 1 mps 676 mmHg 54%
    22:00 +26°C° 0.2 mm 1 mps 676 mmHg 57%
    23:00 +26°C° 0.2 mm 1 mps 677 mmHg 61%

    27 January, Saturday

    Time Temperature Precipitation Wind Pressure Humidity
    00:00 +24°C° 0.8 mm 1 mps 676 mmHg 69%
    01:00 +23°C° 0.8 mm 1 mps 675 mmHg 77%
    02:00 +22°C° 0.8 mm 1 mps 675 mmHg 86%
    03:00 +22°C° 0.1 mm 1 mps 675 mmHg 86%
    04:00 +22°C° 0.1 mm 1 mps 675 mmHg 87%
    05:00 +22°C° 0.1 mm 1 mps 675 mmHg 87%
    06:00 +23°C° 0.6 mm 1 mps 676 mmHg 85%
    07:00 +24°C° 0.6 mm 1 mps 677 mmHg 82%
    08:00 +24°C° 0.6 mm 2 mps 677 mmHg 80%
    09:00 +27°C° 0 mm 2 mps 678 mmHg 67%
    10:00 +30°C° 0 mm 2 mps 678 mmHg 55%
    11:00 +34°C° 0 mm 2 mps 679 mmHg 42%
    12:00 +34°C° 0 mm 2 mps 678 mmHg 40%
    13:00 +35°C° 0 mm 2 mps 677 mmHg 38%
    14:00 +35°C° 0 mm 2 mps 676 mmHg 36%
    15:00 +35°C° 0 mm 2 mps 676 mmHg 35%
    16:00 +34°C° 0 mm 1 mps 676 mmHg 35%
    17:00 +34°C° 0 mm 1 mps 675 mmHg 35%
    18:00 +32°C° 0 mm 1 mps 675 mmHg 39%
    19:00 +30°C° 0 mm 1 mps 675 mmHg 44%
    20:00 +28°C° 0 mm 1 mps 675 mmHg 49%
    21:00 +28°C° 0 mm 1 mps 676 mmHg 51%
    22:00 +27°C° 0 mm 1 mps 676 mmHg 54%
    23:00 +26°C° 0 mm 1 mps 676 mmHg 56%

    28 January, Sunday

    Time Temperature Precipitation Wind Pressure Humidity
    00:00 +26°C° 0 mm 1 mps 676 mmHg 59%
    01:00 +25°C° 0 mm 1 mps 675 mmHg 62%
    02:00 +24°C° 0 mm 1 mps 675 mmHg 66%
    03:00 +24°C° 0 mm 1 mps 675 mmHg 68%
    04:00 +23°C° 0 mm 1 mps 675 mmHg 70%
    05:00 +23°C° 0 mm 1 mps 675 mmHg 72%
    06:00 +24°C° 0 mm 1 mps 675 mmHg 68%
    07:00 +25°C° 0 mm 1 mps 676 mmHg 65%
    08:00 +27°C° 0 mm 1 mps 677 mmHg 61%
    09:00 +29°C° 0 mm 1 mps 677 mmHg 53%
    10:00 +32°C° 0 mm 2 mps 677 mmHg 45%
    11:00 +35°C° 0 mm 2 mps 678 mmHg 37%
    12:00 +36°C° 0 mm 2 mps 677 mmHg 36%
    13:00 +35°C° 0 mm 1 mps 676 mmHg 34%
    14:00 +35°C° 0 mm 1 mps 676 mmHg 33%
    15:00 +35°C° 0 mm 1 mps 675 mmHg 33%
    16:00 +35°C° 0 mm 1 mps 675 mmHg 34%
    17:00 +32°C° 0 mm 0 mps 675 mmHg 34%
    18:00 +31°C° 0 mm 0 mps 675 mmHg 38%
    19:00 +31°C° 0 mm 1 mps 675 mmHg 42%
    20:00 +29°C° 0 mm 1 mps 675 mmHg 46%
    21:00 +28°C° 0 mm 1 mps 675 mmHg 48%
    22:00 +28°C° 0 mm 1 mps 676 mmHg 51%
    23:00 +27°C° 0 mm 1 mps 676 mmHg 54%

    29 January, Monday

    Time Temperature Precipitation Wind Pressure Humidity
    00:00 +27°C° 0 mm 1 mps 676 mmHg 56%
    01:00 +26°C° 0 mm 1 mps 675 mmHg 58%
    02:00 +26°C° 0 mm 1 mps 675 mmHg 60%
    03:00 +25°C° 0 mm 1 mps 675 mmHg 63%
    04:00 +24°C° 0 mm 1 mps 675 mmHg 65%
    05:00 +24°C° 0 mm 1 mps 675 mmHg 68%
    06:00 +25°C° 0 mm 1 mps 676 mmHg 64%
    07:00 +26°C° 0 mm 1 mps 676 mmHg 60%
    08:00 +28°C° 0 mm 1 mps 677 mmHg 57%
    09:00 +31°C° 0 mm 1 mps 678 mmHg 49%
    10:00 +34°C° 0 mm 1 mps 678 mmHg 41%
    11:00 +39°C° 0 mm 1 mps 679 mmHg 33%
    12:00 +36°C° 0 mm 1 mps 678 mmHg 34%
    13:00 +35°C° 0 mm 1 mps 677 mmHg 35%
    14:00 +34°C° 0 mm 1 mps 676 mmHg 36%
    15:00 +34°C° 0 mm 1 mps 676 mmHg 36%
    16:00 +34°C° 0 mm 1 mps 676 mmHg 36%
    17:00 +34°C° 0 mm 1 mps 676 mmHg 36%
    18:00 +33°C° 0 mm 1 mps 676 mmHg 40%
    19:00 +31°C° 0 mm 1 mps 676 mmHg 44%
    20:00 +29°C° 0 mm 1 mps 676 mmHg 48%
    21:00 +28°C° 0 mm 1 mps 676 mmHg 50%
    22:00 +27°C° 0 mm 1 mps 676 mmHg 52%
    23:00 +27°C° 0 mm 1 mps 676 mmHg 54%
    Show more